Coffs Harbour Airport Observation History
Time Wind Speed Temp Pressure Rel. Hum Rain
30/11:30am NNE 10-13 kts 26.4°c 1015.8 hPa 56% 0.0mm
30/11:00am N 9-13 kts 26.3°c 1016.1 hPa 60% 0.0mm
30/10:30am NNE 5-7 kts 24.9°c 1016.4 hPa 62% 0.0mm
30/10:00am N 2-6 kts 23.8°c 1016.6 hPa 66% 0.0mm
30/09:30am N 3-5 kts 22.9°c 1016.6 hPa 72% 0.0mm
30/09:00am NNW 7-8 kts 21.2°c 1016.6 hPa 77% 0.8mm
30/08:30am NNW 6-7 kts 19.7°c 1016.6 hPa 82% 0.8mm
30/08:00am N 4 kts 17.9°c 1016.4 hPa 91% 0.8mm
30/07:30am NW 3-4 kts 16.6°c 1016.0 hPa 94% 0.8mm
30/07:00am CALM 0-3 kts 15.5°c 1016.0 hPa 94% 0.8mm
30/06:30am CALM 0 kts 15.3°c 1015.8 hPa 94% 0.8mm
30/06:00am CALM 0 kts 15.4°c 1015.7 hPa 93% 0.8mm
30/05:30am WNW 5 kts 15.7°c 1015.8 hPa 93% 0.8mm
30/05:00am WNW 4-5 kts 16.2°c 1015.9 hPa 93% 0.8mm
30/04:30am NNW 2-5 kts 15.8°c 1016.0 hPa 92% 0.8mm
30/04:00am N 1-4 kts 16.4°c 1016.3 hPa 91% 0.8mm
30/03:30am N 4-5 kts 17.0°c 1016.5 hPa 91% 0.8mm
30/03:00am N 5-6 kts 17.0°c 1016.8 hPa 90% 0.8mm
30/02:30am CALM 0 kts 17.2°c 1017.6 hPa 91% 0.8mm
30/02:00am NW 6-7 kts 17.8°c 1017.7 hPa 91% 0.8mm
30/01:30am NNW 4-5 kts 17.5°c 1017.8 hPa 92% 0.8mm
30/01:00am NW 6-7 kts 17.8°c 1018.2 hPa 91% 0.8mm
30/12:30am NW 5 kts 17.5°c 1018.3 hPa 93% 0.8mm
30/12:00am NW 5-6 kts 17.7°c 1018.7 hPa 92% 0.8mm
Time Wind Speed Temp Pressure Rel. Hum Rain
29/11:30pm NW 5 kts 18.2°c 1019.0 hPa 93% 0.8mm
29/11:00pm NW 4 kts 18.0°c 1019.3 hPa 92% 0.8mm
29/10:30pm NW 4-5 kts 18.3°c 1019.5 hPa 92% 0.8mm
29/10:00pm NW 4-5 kts 18.6°c 1019.8 hPa 92% 0.8mm
29/09:30pm CALM 0 kts 18.6°c 1019.8 hPa 91% 0.8mm
29/09:00pm WNW 3-5 kts 19.1°c 1019.8 hPa 91% 0.8mm
29/08:30pm NW 4-6 kts 19.3°c 1019.6 hPa 90% 0.8mm
29/08:00pm WNW 6-7 kts 19.6°c 1019.3 hPa 90% 0.8mm
29/07:30pm ENE 3-5 kts 19.8°c 1018.7 hPa 86% 0.8mm
29/07:00pm CALM 0 kts 21.0°c 1018.8 hPa 81% 0.8mm
29/06:30pm ENE 2-4 kts 22.9°c 1018.6 hPa 73% 0.8mm
29/06:00pm E 4-6 kts 23.5°c 1018.4 hPa 71% 0.8mm
29/05:30pm E 5-7 kts 23.6°c 1018.3 hPa 67% 0.8mm
29/05:00pm ESE 5-7 kts 23.6°c 1018.2 hPa 74% 0.8mm
29/04:30pm ESE 6-9 kts 23.9°c 1018.3 hPa 75% 0.8mm
29/04:00pm ESE 2-6 kts 23.7°c 1018.3 hPa 74% 0.8mm
29/03:30pm NNW 3-5 kts 23.5°c 1018.8 hPa 75% 0.8mm
29/03:00pm NW 7-8 kts 22.9°c 1019.0 hPa 75% 0.8mm
29/02:30pm NW 7-8 kts 22.4°c 1019.2 hPa 77% 0.8mm
29/02:00pm NW 8-10 kts 22.2°c 1019.4 hPa 78% 0.8mm
29/01:30pm NNW 7-13 kts 22.7°c 1019.6 hPa 77% 0.8mm
29/01:00pm N 6-9 kts 22.8°c 1019.9 hPa 73% 0.8mm
29/12:30pm NNE 7-10 kts 22.9°c 1020.2 hPa 73% 0.8mm
29/12:00pm E 8-10 kts 22.7°c 1020.6 hPa 78% 0.8mm
29/11:30am SE 8-9 kts 22.2°c 1020.9 hPa 84% 0.8mm
29/11:20am SE 8-9 kts 22.2°c 1020.9 hPa 84% 0.8mm
29/11:00am SSE 8-9 kts 21.9°c 1020.9 hPa 84% 0.8mm
29/10:30am SSW 3-8 kts 21.4°c 1021.1 hPa 85% 0.6mm
29/10:23am WSW 3-5 kts 21.3°c 1021.1 hPa 87% 0.6mm
29/10:00am W 3-5 kts 20.7°c 1021.2 hPa 92% 0.6mm
29/09:30am WSW 5-6 kts 19.7°c 1021.1 hPa 94% 0.6mm
29/09:00am WSW 5-6 kts 19.6°c 1020.9 hPa 94% 33.8mm
29/08:30am WNW 4-6 kts 19.2°c 1020.6 hPa 94% 33.8mm
29/08:00am NW 3-4 kts 18.8°c 1020.5 hPa 94% 33.4mm
29/07:30am NNW 7-8 kts 18.9°c 1019.9 hPa 94% 33.4mm
29/07:00am N 5-7 kts 18.4°c 1019.7 hPa 94% 33.4mm
29/06:30am N 5-6 kts 18.4°c 1019.5 hPa 95% 33.2mm
29/06:00am NW 4-5 kts 18.1°c 1019.3 hPa 94% 33.2mm
29/05:40am WNW 4-5 kts 18.1°c 1019.5 hPa 94% 33.2mm
29/05:30am W 5-6 kts 18.2°c 1019.5 hPa 94% 33.2mm
29/05:00am NNW 5-6 kts 18.5°c 1019.6 hPa 94% 33.2mm
29/04:54am N 4-5 kts 18.5°c 1019.7 hPa 94% 33.2mm
29/04:30am ENE 4-7 kts 18.7°c 1019.8 hPa 93% 33.2mm
29/04:00am NE 6-9 kts 18.7°c 1019.8 hPa 93% 32.8mm
29/03:39am ENE 8-10 kts 19.1°c 1020.2 hPa 94% 32.4mm
29/03:30am ENE 9-12 kts 18.8°c 1020.3 hPa 94% 31.8mm
29/03:00am SW 7-9 kts 18.9°c 1020.3 hPa 94% 28.2mm
29/02:52am SW 8-10 kts 18.9°c 1020.3 hPa 94% 28.2mm
29/02:30am SW 10-12 kts 18.9°c 1020.2 hPa 94% 28.2mm
29/02:00am WSW 10-14 kts 18.9°c 1020.2 hPa 94% 28.2mm
29/01:30am WSW 6-8 kts 19.0°c 1020.5 hPa 94% 28.2mm
29/01:00am SSW 5-8 kts 19.2°c 1020.7 hPa 94% 22.6mm
29/12:30am W 5-8 kts 19.0°c 1020.7 hPa 94% 8.4mm
29/12:00am WSW 5-7 kts 19.0°c 1020.8 hPa 94% 8.4mm
Time Wind Speed Temp Pressure Rel. Hum Rain
28/11:41pm WSW 5-6 kts 19.1°c 1020.9 hPa 94% 8.4mm
28/11:30pm WNW 4-5 kts 19.2°c 1020.8 hPa 93% 8.4mm
28/11:26pm WNW 3-5 kts 19.3°c 1020.8 hPa 93% 8.4mm
28/11:00pm WSW 3-5 kts 19.4°c 1020.9 hPa 93% 6.0mm
28/10:30pm WSW 3-5 kts 19.2°c 1021.3 hPa 93% 5.2mm
28/10:00pm SW 5-6 kts 19.4°c 1021.3 hPa 93% 5.2mm
28/09:30pm WNW 6-8 kts 19.8°c 1021.0 hPa 93% 5.2mm
28/09:00pm NNW 7 kts 20.1°c 1021.3 hPa 92% 5.2mm
28/08:30pm N 7-9 kts 20.2°c 1021.1 hPa 90% 5.0mm
28/08:00pm NNE 5-7 kts 20.7°c 1020.6 hPa 88% 0.6mm
28/07:30pm WNW 6-7 kts 20.5°c 1020.4 hPa 89% 0.6mm
28/07:00pm NE 4 kts 21.1°c 1020.5 hPa 86% 0.6mm
28/06:30pm NE 7-10 kts 21.3°c 1020.1 hPa 85% 0.6mm
28/06:00pm E 11-18 kts 21.2°c 1020.1 hPa 86% 0.6mm
28/05:30pm ESE 9-14 kts 21.8°c 1020.0 hPa 80% 0.6mm
28/05:00pm E 13-16 kts 21.7°c 1019.8 hPa 85% 0.6mm
28/04:56pm E 13-17 kts 21.8°c 1019.8 hPa 84% 0.6mm
28/04:41pm SSE 10-17 kts 22.1°c 1019.8 hPa 84% 0.4mm
28/04:30pm S 14-17 kts 23.1°c 1019.7 hPa 78% 0.2mm
28/04:00pm S 11-16 kts 24.7°c 1020.0 hPa 72% 0.2mm
28/03:30pm S 12-15 kts 24.4°c 1020.0 hPa 71% 0.2mm
28/03:00pm S 13-16 kts 24.5°c 1020.1 hPa 71% 0.2mm
28/02:30pm S 10-13 kts 23.7°c 1020.1 hPa 70% 0.2mm
28/02:00pm SSE 11-14 kts 23.8°c 1020.5 hPa 70% 0.2mm
28/01:30pm SSW 9-15 kts 24.0°c 1020.8 hPa 67% 0.2mm
28/01:00pm SSW 10-15 kts 24.1°c 1021.3 hPa 67% 0.2mm
28/12:30pm SSW 13-17 kts 23.8°c 1021.6 hPa 70% 0.0mm
28/12:00pm SW 13-17 kts 24.4°c 1021.8 hPa 69% 0.0mm
28/11:30am SW 14-18 kts 23.1°c 1022.0 hPa 67% 0.0mm
28/11:00am SW 16-21 kts 22.6°c 1022.1 hPa 68% 0.0mm
28/10:30am SW 14-21 kts 22.3°c 1022.3 hPa 69% 0.0mm
28/10:23am SW 16-26 kts 22.0°c 1022.3 hPa 70% 0.0mm
28/10:00am SW 15-22 kts 21.4°c 1022.2 hPa 70% 0.0mm
28/09:30am WSW 17-26 kts 20.7°c 1022.3 hPa 72% 0.0mm
28/09:25am WSW 16-26 kts 20.7°c 1022.4 hPa 73% 0.0mm
28/09:00am WSW 15-19 kts 19.7°c 1022.2 hPa 75% 0.2mm
28/08:30am WSW 14-23 kts 18.8°c 1022.3 hPa 80% 0.2mm
28/08:00am SW 13-19 kts 18.7°c 1022.4 hPa 77% 0.2mm
28/07:30am WSW 13-18 kts 18.4°c 1022.2 hPa 76% 0.2mm
28/07:00am WSW 11-17 kts 18.5°c 1021.9 hPa 74% 0.2mm
28/06:30am WSW 11-15 kts 18.0°c 1021.6 hPa 73% 0.2mm
28/06:00am SW 12-19 kts 18.0°c 1021.6 hPa 74% 0.2mm
28/05:30am WSW 12-17 kts 17.8°c 1021.4 hPa 72% 0.2mm
28/05:00am SW 12-18 kts 17.4°c 1021.6 hPa 75% 0.2mm
28/04:30am SSW 12-16 kts 17.6°c 1021.6 hPa 74% 0.2mm
28/04:00am SW 10-15 kts 17.4°c 1021.6 hPa 73% 0.2mm
28/03:30am SW 11-17 kts 18.2°c 1021.7 hPa 70% 0.2mm
28/03:00am WSW 13-19 kts 17.9°c 1021.9 hPa 70% 0.2mm
28/02:30am WSW 11-16 kts 18.3°c 1022.2 hPa 68% 0.2mm
28/02:00am WSW 14-19 kts 18.2°c 1022.6 hPa 69% 0.2mm
28/01:30am SSW 10-14 kts 18.3°c 1022.9 hPa 68% 0.2mm
28/01:00am SW 12-18 kts 18.6°c 1023.1 hPa 67% 0.2mm
28/12:30am WSW 14-20 kts 19.0°c 1023.4 hPa 66% 0.2mm
28/12:00am WSW 15-21 kts 19.3°c 1023.7 hPa 65% 0.2mm